GW3916 Weather Reports


time (UTC)temp
F
wind
direction
speed
knots
gust
knots
rain 1hr
in
rain 24hr
in
rain mn
in
humidity
%
barometer
mb
20260506134820 48 79 0.0 0.0 0.01 0.01 0.01 100 1017.9
20260506134336 48 79 0.0 0.0 0.01 0.01 0.01 100 1017.9
20260506133832 48 60 0.0 0.0 0.01 0.01 0.01 100 1017.9
20260506133330 48 60 0.0 0.0 0.01 0.01 0.01 100 1017.8
20260506132820 48 356 0.0 0.0 0.01 0.01 0.01 100 1017.8
20260506132322 48 356 0.0 1.7 0.01 0.01 0.01 100 1017.8
20260506131837 48 63 0.9 1.7 0.01 0.01 0.01 100 1017.6
20260506131335 48 50 0.0 0.0 0.01 0.01 0.01 100 1017.6
20260506130807 48 322 0.0 0.0 0.00 0.00 0.00 100 1017.6
20260506130356 48 322 0.0 0.0 0.00 0.00 0.00 100 1017.7
20260506125834 48 322 0.0 0.0 0.00 0.00 0.00 100 1017.7
20260506125327 48 100 0.0 0.0 0.00 0.00 0.00 100 1017.7
20260506124819 48 100 0.0 1.7 0.00 0.00 0.00 100 1017.9
20260506124317 48 328 0.0 0.0 0.00 0.00 0.00 100 1017.9
20260506123817 48 328 0.0 0.0 0.00 0.00 0.00 100 1017.9
20260506123313 48 328 0.0 0.0 0.00 0.00 0.00 100 1017.7
20260506122810 48 328 0.0 0.0 0.00 0.00 0.00 100 1017.7
20260506122314 49 328 0.0 0.0 0.00 0.00 0.00 100 1017.7
20260506121839 49 328 0.0 0.0 0.00 0.00 0.00 100 1017.8
20260506121334 49 58 0.0 0.0 0.00 0.00 0.00 100 1017.8
20260506120829 49 58 0.0 0.0 0.00 0.00 0.00 100 1017.8
20260506120323 49 58 0.0 0.0 0.00 0.00 0.00 100 1017.7
20260506115826 49 47 0.0 0.0 0.00 0.00 0.00 100 1017.7
20260506115320 49 19 0.0 1.7 0.00 0.00 0.00 100 1017.7
20260506114838 49 72 0.0 1.7 0.00 0.00 0.00 100 1017.4
20260506114353 49 99 0.0 1.7 0.00 0.00 0.00 100 1017.4
20260506113842 49 99 0.0 1.7 0.00 0.00 0.00 100 1017.4
20260506113358 49 99 0.0 0.0 0.00 0.00 0.00 100 1017.3
20260506112829 49 99 0.0 0.0 0.00 0.00 0.00 100 1017.3
20260506112320 49 99 0.0 0.0 0.00 0.00 0.00 100 1017.3
20260506111848 49 99 0.0 0.0 0.00 0.00 0.00 100 1017.2
20260506111327 49 99 0.0 0.0 0.00 0.00 0.00 100 1017.2
20260506110826 49 99 0.0 0.0 0.00 0.00 0.00 100 1017.2
20260506110322 49 99 0.0 0.0 0.00 0.00 0.00 100 1017.0
20260506105823 49 99 0.0 0.0 0.00 0.00 0.00 100 1017.0
20260506105334 49 99 0.0 0.0 0.00 0.00 0.00 100 1017.0
20260506104858 49 99 0.0 0.0 0.00 0.00 0.00 100 1016.8
20260506104332 49 99 0.0 0.0 0.00 0.00 0.00 100 1016.8
20260506103833 49 99 0.0 0.0 0.00 0.00 0.00 100 1016.8
20260506103313 49 99 0.0 0.0 0.00 0.00 0.00 100 1016.5
20260506102834 49 99 0.0 0.9 0.00 0.00 0.00 100 1016.5
20260506102311 49 99 0.0 1.7 0.00 0.00 0.00 100 1016.5
20260506101826 49 99 0.0 1.7 0.00 0.00 0.00 100 1016.4
20260506101324 49 99 0.0 1.7 0.00 0.00 0.00 100 1016.4
20260506100838 49 97 0.0 1.7 0.00 0.00 0.00 100 1016.4
20260506100348 49 95 0.0 1.7 0.00 0.00 0.00 100 1016.5
20260506095835 49 100 0.0 0.9 0.00 0.00 0.00 100 1016.5
20260506095307 49 100 0.0 0.9 0.00 0.00 0.00 100 1016.5
20260506094814 49 72 0.0 0.9 0.00 0.00 0.00 100 1016.4
20260506094329 49 310 0.0 0.9 0.00 0.00 0.00 100 1016.4
20260506093828 49 310 0.0 1.7 0.00 0.00 0.00 100 1016.4
20260506093320 49 310 0.0 1.7 0.00 0.00 0.00 100 1016.5
20260506092809 49 310 0.0 1.7 0.00 0.00 0.00 100 1016.5
20260506092353 49 310 0.0 0.0 0.00 0.00 0.00 100 1016.5
20260506091829 49 310 0.0 0.0 0.00 0.00 0.00 100 1016.4
20260506091354 49 310 0.0 0.0 0.00 0.00 0.00 100 1016.4
20260506090811 49 310 0.0 0.0 0.00 0.00 0.00 100 1016.4
20260506090329 49 310 0.0 0.0 0.00 0.00 0.00 100 1016.4
20260506085828 49 310 0.0 0.0 0.00 0.00 0.00 100 1016.4
20260506085317 49 310 0.0 0.0 0.00 0.00 0.00 100 1016.4
20260506084851 49 310 0.0 0.0 0.00 0.00 0.00 100 1016.4
20260506084322 49 310 0.0 0.0 0.00 0.00 0.00 100 1016.4
20260506083901 49 310 0.0 0.0 0.00 0.00 0.00 100 1016.4
20260506083310 49 310 0.0 0.0 0.00 0.00 0.00 100 1016.4
20260506082815 49 310 0.0 0.0 0.00 0.00 0.00 100 1016.4
20260506082355 49 310 0.0 1.7 0.00 0.00 0.00 100 1016.4
20260506081810 49 310 0.0 1.7 0.00 0.00 0.00 100 1016.3
20260506081335 49 310 0.0 1.7 0.00 0.00 0.00 100 1016.3
20260506080821 49 283 0.0 0.0 0.00 0.00 0.00 100 1016.3
20260506080328 49 239 0.0 0.0 0.00 0.00 0.00 100 1016.1
20260506073336 49 239 0.0 0.0 0.00 0.00 0.00 100 1015.8
20260506072830 49 239 0.0 0.0 0.00 0.00 0.00 100 1015.8
20260506072321 49 239 0.0 0.0 0.00 0.00 0.00 100 1015.8
20260506071836 48 239 0.0 0.0 0.00 0.00 0.00 100 1015.8
20260506071331 48 239 0.0 0.0 0.00 0.00 0.00 100 1015.8
20260506070827 48 239 0.0 0.0 0.00 0.00 0.00 100 1015.8
20260506070316 48 239 0.0 0.0 0.00 0.00 0.00 100 1015.7
20260506062335 48 239 0.0 0.0 0.00 0.00 0.00 100 1015.5
20260506061808 47 239 0.0 0.0 0.00 0.00 0.00 99 1015.5
20260506061331 48 239 0.0 0.0 0.00 0.00 0.00 99 1015.5
20260506060815 48 239 0.0 0.0 0.00 0.00 0.00 99 1015.5
20260506060338 48 239 0.0 0.0 0.00 0.00 0.00 99 1015.5
20260506051329 48 225 0.0 0.0 0.00 0.00 0.00 97 1015.5
20260506050841 48 239 0.0 0.9 0.00 0.00 0.00 97 1015.5
20260506050330 48 239 0.0 0.9 0.00 0.00 0.00 97 1015.4
20260506044821 49 239 0.9 1.7 0.00 0.00 0.00 97 1015.3
20260506044315 49 239 0.0 1.7 0.00 0.00 0.00 97 1015.3
20260506043840 49 239 0.9 1.7 0.00 0.00 0.00 97 1015.3
20260506043347 49 239 0.0 1.7 0.00 0.00 0.00 97 1015.2
20260506042837 49 239 0.0 1.7 0.00 0.00 0.00 96 1015.2
20260506042314 50 239 0.0 1.7 0.00 0.00 0.00 96 1015.2
20260506041852 50 239 0.0 2.6 0.00 0.00 0.00 95 1014.9
20260506041330 50 239 1.7 2.6 0.00 0.00 0.00 96 1014.9
20260506040837 50 243 0.0 2.6 0.00 0.00 0.00 94 1014.9
20260506040310 50 325 0.0 0.0 0.00 0.00 0.00 95 1014.6
20260506035834 51 325 0.0 0.0 0.00 0.00 0.00 94 1014.6
20260506035350 51 325 0.0 0.0 0.00 0.00 0.00 94 1014.6
20260506034813 51 325 0.0 0.0 0.00 0.00 0.00 93 1014.4
20260506034314 51 325 0.0 0.0 0.00 0.00 0.00 93 1014.4
20260506033838 52 325 0.0 0.9 0.00 0.00 0.00 92 1014.4
20260506033332 52 325 0.0 0.9 0.00 0.00 0.00 91 1014.3
20260506032812 53 325 0.0 0.9 0.00 0.00 0.00 90 1014.3
20260506032315 54 325 0.0 0.0 0.00 0.00 0.00 89 1014.3
20260506031838 54 325 0.0 0.0 0.00 0.00 0.00 88 1014.4
20260506031331 54 325 0.0 0.0 0.00 0.00 0.00 87 1014.4
20260506030841 55 325 0.0 0.0 0.00 0.00 0.00 87 1014.4
20260506030315 55 325 0.0 0.0 0.00 0.00 0.00 87 1014.3
20260506025850 56 325 0.0 0.9 0.00 0.00 0.00 86 1014.3
20260506025340 56 319 0.9 0.9 0.00 0.00 0.00 86 1014.3
20260506024840 56 325 0.0 1.7 0.00 0.00 0.00 85 1014.5
20260506024359 56 325 0.9 1.7 0.00 0.00 0.00 85 1014.5
20260506023831 57 316 0.0 1.7 0.00 0.00 0.00 84 1014.5
20260506023333 57 307 0.9 1.7 0.00 0.00 0.00 83 1014.4
20260506022829 58 319 0.0 1.7 0.00 0.00 0.00 81 1014.4
20260506022338 59 314 0.0 0.0 0.00 0.00 0.00 81 1014.4
20260506021830 59 347 0.0 0.0 0.00 0.00 0.00 81 1014.4
20260506021321 59 36 0.0 0.9 0.00 0.00 0.00 81 1014.4
20260506020812 59 319 0.0 2.6 0.00 0.00 0.00 81 1014.4
20260506020337 59 72 0.0 2.6 0.00 0.00 0.00 82 1014.3
20260506015832 59 316 0.0 2.6 0.00 0.00 0.00 81 1014.3
20260506015330 59 316 0.0 2.6 0.00 0.00 0.00 81 1014.3
20260506014827 59 328 0.0 2.6 0.00 0.00 0.00 81 1014.5
20260506014325 59 322 0.0 2.6 0.00 0.00 0.00 82 1014.5
20260506013832 59 339 0.9 3.5 0.00 0.00 0.00 82 1014.5
20260506013312 59 307 1.7 3.5 0.00 0.00 0.00 82 1014.6
20260506012809 59 340 1.7 3.5 0.00 0.00 0.00 82 1014.6
20260506012312 59 310 1.7 3.5 0.00 0.00 0.00 81 1014.6
20260506011851 59 299 1.7 3.5 0.00 0.00 0.00 81 1014.5
20260506011328 59 301 1.7 2.6 0.00 0.00 0.00 81 1014.5
20260506010848 59 1 1.7 3.5 0.00 0.00 0.00 81 1014.5
20260506010350 59 337 1.7 3.5 0.00 0.00 0.00 80 1014.7
20260506005811 60 310 0.9 4.3 0.00 0.00 0.00 80 1014.7
20260506005315 60 336 1.7 4.3 0.00 0.00 0.00 80 1014.7
20260506004831 60 289 0.9 3.5 0.00 0.00 0.00 80 1014.6
20260506004321 60 10 0.0 2.6 0.00 0.00 0.00 81 1014.6
20260506003818 60 346 0.9 4.3 0.00 0.00 0.00 81 1014.6
20260506003357 60 300 0.9 4.3 0.00 0.00 0.00 81 1014.7
20260506002830 59 301 1.7 3.5 0.00 0.00 0.00 81 1014.7
20260506002326 60 294 1.7 5.2 0.00 0.00 0.00 82 1014.7
20260506001807 60 312 1.7 4.3 0.00 0.00 0.00 81 1014.7
20260506001331 60 317 1.7 4.3 0.00 0.00 0.00 81 1014.7
20260506000834 60 330 1.7 4.3 0.00 0.00 0.00 82 1014.7
20260506000310 60 330 1.7 4.3 0.00 0.00 0.00 81 1014.8
20260505235813 60 307 2.6 5.2 0.00 0.00 0.00 83 1014.8
20260505235358 60 317 2.6 5.2 0.00 0.00 0.00 81 1014.8
20260505234829 61 309 0.9 4.3 0.00 0.00 0.00 81 1015.0
20260505234306 61 1 1.7 4.3 0.00 0.00 0.00 80 1015.0
20260505233813 61 6 1.7 3.5 0.00 0.00 0.00 80 1015.0
20260505233335 61 327 0.9 3.5 0.00 0.00 0.00 81 1015.0
20260505232838 61 333 0.0 2.6 0.00 0.00 0.00 81 1015.0
20260505232333 62 75 0.9 2.6 0.00 0.00 0.00 82 1015.0
20260505231810 62 91 0.9 3.5 0.00 0.00 0.00 83 1015.1
20260505231336 62 16 0.9 3.5 0.00 0.00 0.00 81 1015.1
20260505230850 62 20 0.0 2.6 0.00 0.00 0.00 82 1015.1
20260505230326 61 54 0.9 2.6 0.00 0.00 0.00 84 1015.2
20260505225816 61 6 0.9 2.6 0.00 0.00 0.00 83 1015.2
20260505225317 61 118 0.0 2.6 0.00 0.00 0.00 85 1015.2
20260505224836 61 79 0.9 4.3 0.00 0.00 0.00 82 1015.3
20260505224331 62 21 0.0 4.3 0.00 0.00 0.00 84 1015.3
20260505223855 62 20 0.0 3.5 0.00 0.00 0.00 83 1015.3
20260505223324 62 56 0.9 3.5 0.00 0.00 0.00 84 1015.2
20260505222815 61 306 0.9 3.5 0.00 0.00 0.00 85 1015.2
20260505222332 61 337 1.7 3.5 0.00 0.00 0.00 85 1015.2
20260505221831 61 50 0.0 2.6 0.00 0.00 0.00 85 1015.3
20260505221331 61 62 0.9 2.6 0.00 0.00 0.00 85 1015.3
20260505220816 61 151 0.0 1.7 0.00 0.00 0.00 86 1015.3
20260505220333 60 18 0.0 3.5 0.00 0.00 0.00 86 1015.4
20260505215825 60 356 0.9 3.5 0.00 0.00 0.00 88 1015.4
20260505215321 60 20 1.7 1.7 0.00 0.00 0.00 88 1015.4
20260505214829 59 309 0.0 1.7 0.00 0.00 0.00 90 1015.7
20260505214326 59 176 0.0 2.6 0.00 0.00 0.00 90 1015.7
20260505213821 58 188 0.9 2.6 0.00 0.00 0.00 91 1015.7
20260505213338 58 155 0.9 2.6 0.00 0.00 0.00 91 1015.8
20260505212827 57 163 0.9 1.7 0.00 0.00 0.00 93 1015.8
20260505212324 57 236 0.0 2.6 0.00 0.00 0.00 93 1015.8
20260505211835 57 6 1.7 2.6 0.00 0.00 0.00 93 1015.7
20260505211308 57 272 0.0 1.7 0.00 0.00 0.00 94 1015.7
20260505210833 56 297 0.0 3.5 0.00 0.00 0.00 94 1015.7
20260505210325 56 349 1.7 3.5 0.00 0.00 0.00 95 1015.7
20260505205820 56 301 0.0 0.0 0.00 0.00 0.00 95 1015.7
20260505205334 56 45 0.0 2.6 0.00 0.00 0.00 95 1015.7
20260505204827 56 51 0.9 2.6 0.00 0.00 0.00 95 1015.8
20260505204318 55 346 0.0 0.0 0.00 0.00 0.00 97 1015.8
20260505203834 55 273 0.0 1.7 0.00 0.00 0.00 97 1015.8
20260505203330 55 13 0.0 2.6 0.00 0.00 0.00 97 1015.8
20260505202847 54 6 0.9 2.6 0.00 0.00 0.00 98 1015.8
20260505202350 54 306 0.0 1.7 0.00 0.00 0.00 98 1015.8
20260505201823 54 266 0.0 0.0 0.00 0.00 0.00 99 1015.8
20260505201309 54 345 0.0 1.7 0.00 0.00 0.00 100 1015.8
20260505200831 53 81 0.0 1.7 0.00 0.00 0.00 100 1015.8
20260505200340 53 81 0.0 1.7 0.00 0.00 0.00 100 1015.8
20260505195812 53 66 0.9 1.7 0.00 0.00 0.00 100 1015.8
20260505195333 53 77 0.0 1.7 0.00 0.00 0.00 100 1015.8
20260505194826 53 329 0.0 1.7 0.00 0.00 0.00 100 1015.8
20260505194317 53 307 0.0 0.9 0.00 0.00 0.00 100 1015.8
20260505193837 52 324 0.0 1.7 0.00 0.00 0.00 100 1015.8
20260505193329 52 324 0.9 1.7 0.00 0.00 0.00 100 1015.8
20260505192842 52 340 0.0 1.7 0.00 0.00 0.00 100 1015.8
20260505192319 52 308 0.0 2.6 0.00 0.00 0.00 100 1015.8
20260505191819 52 311 0.9 2.6 0.00 0.00 0.00 100 1015.7
20260505191337 52 356 0.0 1.7 0.00 0.00 0.00 100 1015.7
20260505190826 52 62 0.9 1.7 0.00 0.00 0.00 100 1015.7
20260505190307 52 299 0.0 1.7 0.00 0.00 0.00 100 1015.6
20260505185828 52 304 0.9 1.7 0.00 0.00 0.00 100 1015.6
20260505185331 52 323 0.0 1.7 0.00 0.00 0.00 100 1015.6
20260505184825 52 133 0.0 1.7 0.00 0.00 0.00 100 1015.7
20260505184323 52 316 0.9 1.7 0.00 0.00 0.00 100 1015.7
20260505183901 52 333 0.0 1.7 0.00 0.00 0.00 100 1015.7
20260505183333 52 343 0.0 1.7 0.00 0.00 0.00 100 1015.7
20260505182810 52 12 0.9 1.7 0.00 0.00 0.00 100 1015.7
20260505182335 52 87 0.0 1.7 0.00 0.00 0.00 100 1015.7
20260505181815 52 79 0.9 1.7 0.00 0.00 0.00 100 1015.4
20260505181312 52 35 0.0 1.7 0.00 0.00 0.00 100 1015.4
20260505180837 52 35 0.0 1.7 0.00 0.00 0.00 100 1015.4
20260505180327 52 93 0.0 1.7 0.00 0.00 0.00 100 1015.3
20260505175807 52 81 0.0 1.7 0.00 0.00 0.00 100 1015.3
20260505175344 52 69 0.0 1.7 0.00 0.00 0.00 100 1015.3
20260505174834 52 91 0.0 1.7 0.00 0.00 0.00 100 1015.3
20260505174327 52 91 0.0 1.7 0.00 0.00 0.00 100 1015.3
20260505173824 52 91 0.0 1.7 0.00 0.00 0.00 100 1015.3
20260505173335 52 91 0.0 1.7 0.00 0.00 0.00 100 1015.2
20260505172811 51 68 0.9 1.7 0.00 0.00 0.00 100 1015.2
20260505172330 51 96 0.0 1.7 0.00 0.00 0.00 100 1015.2
20260505171823 51 64 0.0 0.9 0.00 0.00 0.00 100 1015.2
20260505171331 51 64 0.0 0.9 0.00 0.00 0.00 100 1015.2
20260505170845 51 68 0.0 0.0 0.00 0.00 0.00 100 1015.2
20260505170336 51 93 0.0 0.0 0.00 0.00 0.00 100 1015.3
20260505165824 51 93 0.0 0.0 0.00 0.00 0.00 100 1015.3
20260505165335 51 83 0.0 0.0 0.00 0.00 0.00 100 1015.3
20260505164809 51 83 0.0 0.0 0.00 0.00 0.00 100 1015.2
20260505164335 51 83 0.0 0.0 0.00 0.00 0.00 100 1015.2
20260505163808 51 44 0.0 0.0 0.00 0.00 0.00 100 1015.2
20260505163330 51 44 0.0 0.0 0.00 0.00 0.00 100 1015.1
20260505162824 51 356 0.0 1.7 0.00 0.00 0.00 100 1015.1
20260505162323 51 356 0.0 1.7 0.00 0.00 0.00 100 1015.1
20260505161806 51 352 0.0 1.7 0.00 0.00 0.00 100 1014.9
20260505161311 51 352 0.0 1.7 0.00 0.00 0.00 100 1014.9
20260505160829 51 352 0.0 1.7 0.00 0.00 0.00 100 1014.9
20260505160348 50 314 0.0 1.7 0.00 0.00 0.00 100 1015.0
20260505153323 50 97 0.0 1.7 0.00 0.00 0.00 100 1014.8
20260505152821 50 72 0.0 1.7 0.00 0.00 0.00 100 1014.8
20260505152310 50 72 0.0 1.7 0.00 0.00 0.00 100 1014.8
20260505151828 50 72 0.0 1.7 0.00 0.00 0.00 100 1014.6
20260505151320 50 72 0.0 1.7 0.00 0.00 0.00 100 1014.6
20260505150817 50 72 0.0 1.7 0.00 0.00 0.00 100 1014.6
20260505150359 50 72 0.0 1.7 0.00 0.00 0.00 100 1014.4
20260505140318 50 117 0.0 1.7 0.00 0.00 0.00 100 1013.8